Home   Weather   Inuvik   Past weeks
Flag for Canada

Past Weather in Inuvik, Northwest Territories, Canada — Yesterday and Last 2 Weeks

Now
-29 °F

Passing clouds.


Feels Like: -29 °F
Forecast: -3 / -23 °F
Wind: 2 mph from Northwest

Location: Inuvik

Current Time: Mar 29, 2020 at 10:32:05 am

Latest Report: Mar 29, 2020 at 9:00 am


Visibility: 15 mi

Pressure: 30.58 "Hg

Humidity: 67%

Dew Point: -36 °F

Location of InuvikLocation

Past Weather in Inuvik — Graph

°F

Inuvik Temperature Yesterday

Maximum temperature yesterday: -4 °F (at 5:00 pm)
Minimum temperature yesterday: -24 °F (at 8:00 am)
Average temperature yesterday: -14 °F

High & Low Weather Summary for the Past Weeks

 TemperatureHumidityPressure
High37 °F (Mar 19, 5:00 pm)100% (Mar 19, 3:31 am)30.62 "Hg (Mar 19, 3:31 am)
Low-29 °F (Mar 29, 7:00 am)51% (Mar 22, 6:00 pm)29.52 "Hg (Mar 25, 12:40 pm)
Average12 °F76%30.09 "Hg
* Reported Mar 14 9:00 am — Mar 29 9:00 am, Inuvik. Weather by CustomWeather, © 2020

Note: Actual official high and low records may vary slightly from our data, if they occured in-between our weather recording intervals... More about our weather records

Inuvik Weather History for the Previous 24 Hours

Scroll right to see more
 ConditionsComfort  
Time TempWeatherWind HumidityBarometerVisibility
9:00 am
Sun, Mar 29
-29 °FPassing clouds.2 mph67%30.58 "Hg15 mi
8:00 am-27 °FPassing clouds.2 mph74%30.57 "Hg15 mi
7:00 am-29 °FPassing clouds.2 mph74%30.54 "Hg15 mi
6:00 am-26 °FPassing clouds.3 mph75%30.53 "Hg15 mi
5:00 am-26 °FClear.No wind75%30.50 "Hg15 mi
4:00 am-24 °FClear.6 mph75%30.48 "Hg15 mi
3:00 am-20 °FClear.3 mph75%30.46 "Hg15 mi
2:11 am-20 °FClear.7 mph75%30.44 "Hg15 mi
1:00 am-17 °FSnow flurries. Passing clouds.8 mph76%30.41 "Hg15 mi
12:19 am-17 °FSnow flurries. Passing clouds.6 mph83%30.39 "Hg15 mi
12:00 am-17 °FLight snow. Passing clouds.6 mph76%30.37 "Hg15 mi
11:14 pm
Sat, Mar 28
-17 °FLight snow. Partly sunny.6 mph83%30.35 "Hg15 mi
10:06 pm-13 °FSnow flurries. Scattered clouds.5 mph76%30.33 "Hg15 mi
9:00 pm-11 °FLight snow. Partly sunny.6 mph76%30.31 "Hg8 mi
8:00 pm-9 °FLight snow. Broken clouds.10 mph64%30.29 "Hg3 mi
7:47 pm-9 °FLight snow. Partly sunny.10 mph70%30.28 "Hg3 mi
7:00 pm-8 °FLight snow. Ice fog.13 mph64%30.26 "Hg1 mi
6:00 pm-8 °FLight snow. Overcast.13 mph70%30.24 "Hg3 mi
5:00 pm-4 °FLight snow. Mostly cloudy.15 mph65%30.22 "Hg4 mi
4:04 pm-6 °FLight snow. Overcast.10 mph64%30.22 "Hg3 mi
3:00 pm-9 °FLight snow. Ice fog.6 mph64%30.24 "Hg1 mi
2:47 pm-9 °FLight snow. Overcast.8 mph64%30.24 "Hg2 mi
2:00 pm-11 °FLight snow. Mostly cloudy.8 mph63%30.24 "Hg5 mi
1:00 pm-13 °FLight snow. Mostly cloudy.6 mph57%30.24 "Hg6 mi
12:51 pm-13 °FLight snow. Mostly cloudy.7 mph57%30.25 "Hg10 mi
12:00 pm-15 °FPartly sunny.6 mph57%30.24 "Hg15 mi
11:00 am-17 °FBroken clouds.5 mph57%30.24 "Hg15 mi
10:00 am-18 °FPassing clouds.2 mph69%30.24 "Hg15 mi
Weather by CustomWeather, © 2020

See weather overview

Advertising